www.pogodaiklimat.ru

Погода и климат >> Архив погоды >> Россия >> Камчатский край >> Эссо


АРХИВ ПОГОДЫ в Эссо

Время (UTC), дата Ветер
(напр.,м/с)
 
Видим.   Явления Облачность Т
(С)
Тd
(С)
f
(%)
Тe
(С)
Тes
(С)
Комфортность P
(гПа)
Po
(гПа)
Тmin
(С)
Tmax
(С)
R
(мм)
R24
(мм)
S
(см)
06 17.07 З 1 50 км 8/8 1000 м
[Sc]
+23.8 +7.0 34 +24 +26 комфорт 1009.9 956.0
09 17.07 ЮЗ 1 50 км 1/1 1000 м
[Sc]
+18.9 +7.1 46 +20 +21 1011.0 956.1 +25.6
12 17.07 Ю 2 20 км ясно +11.5 +7.4 76 +10 +10 1015.2 958.7
15 17.07 ЮЗ 1 20 км 4/3 1000 м
[Sc Ac trans]
+8.2 +5.7 84 +7 +7 1015.9 958.7
18 17.07 ЮЗ 1 50 км 8/3 1000 м
[Sc Ac trans Cc]
+6.1 +4.4 89 +5 +5 1016.3 958.7
21 17.07 штиль 0 50 км 4/0
[Ci fib]
+12.4 +6.4 67 +12 +19 1013.8 957.5 +6.1
00 18.07 Ю 1 50 км 9/0
[Ci fib]
+21.4 +6.3 37 +22 +35 комфорт 1010.5 956.1
03 18.07 В 1 50 км 10 баллов +23.7 +3.6 27 +23 +23 комфорт 1011.4 957.3
06 18.07 СВ 2 50 км 8/0
[Ci sp]
+21.3 +6.4 38 +22 +24 комфорт 1011.8 957.3
09 18.07 ЮЗ 1 50 км 10/0
[Cs]
+17.8 +8.4 54 +19 +19 1013.9 958.7 +23.8
12 18.07 Ю 1 20 км 8/1 1000 м
[Sc Ci fib]
+11.3 +8.2 81 +11 +11 1016.6 960.0
15 18.07 Ю 1 20 км 1 балл +9.1 +6.9 86 +8 +8 1018.4 961.3
18 18.07 Ю 1 50 км 8/8 1000 м
[Sc]
+9.5 +6.6 82 +9 +9 1018.3 961.3
21 18.07 штиль 0 20 км 8/6 1000 м
[Sc Ac trans]
+15.1 +9.0 67 +15 +17 1016.4 960.6 +8.4
00 19.07 В 1 50 км 9/3 1000 м
[Sc Ci sp]
+21.6 +12.2 55 +24 +33 комфорт 1014.7 960.2
03 19.07 Ю 2 20 км 9/9 1000 м
[Sc]
+25.1 +10.5 40 +26 +27 жарко 1015.2 961.3
06 19.07 штиль 0 20 км 9/9 1000 м
[Sc]
+22.4 +12.9 55 +25 +26 комфорт 1015.7 961.3
09 19.07 С 1 50 км 9/9 1000 м
[Sc]
+19.5 +13.4 68 +22 +22 комфорт 1017.7 962.7 +25.6
12 19.07 штиль 0 20 км 9/9 1000 м
[Sc]
+16.1 +12.5 79 +16 +16 1019.8 964.0
15 19.07 ЮЗ 1 20 км 6/6 1000 м
[Sc]
+13.3 +11.2 87 +13 +13 1020.3 964.0
18 19.07 ЮЗ 2 50 км 3/3 1000 м
[Sc]
+11.7 +9.1 84 +11 +11 1020.7 964.0
21 19.07 штиль 0 50 км 3/3 1000 м
[Sc]
+18.3 +10.4 60 +19 +24 1016.9 961.7 +11.7
00 20.07 Ю 1 50 км 5/5 1000 м
[Sc]
+24.7 +9.4 38 +25 +33 комфорт 1013.5 959.6
03 20.07 ЮЗ 2 20 км 10 баллов +21.9 +11.0 50 +24 +24 комфорт 1014.4 960.0
06 20.07 штиль 0 20 км слаб. ливневой дождь 10/10 600 м
[Cb cap]
+19.0 +15.3 79 +20 +20 1014.9 960.0
09 20.07 СВ 1 20 км {ливн. осадки} 10/10 300 м
[St]
+17.6 +16.3 92 +19 +19 1015.1 960.0 +25.0 2
12 20.07 ЮВ 1 20 км {ливн. осадки} 10/10 300 м
[St]
+16.6 +15.3 92 +17 +17 1014.2 958.9
15 20.07 штиль 0 н/о н/о +15.7 +13.5 87 +15 +15 1015.6 960.0
18 20.07 Ю 2 20 км 9/9 600 м
[Sc]
+15.1 +13.1 88 +15 +15 1014.3 958.7
21 20.07 штиль 0 20 км слаб. ливневой дождь 10/10 600 м
[Cb cap]
+16.5 +14.5 88 +16 +16 1012.6 957.4 +14.5 0.1
00 21.07 штиль 0 20 км {ливн. осадки} 10/10 1000 м
[Sc]
+18.1 +14.9 82 +18 +18 1010.0 955.2
03 21.07 З 1 20 км слаб. ливневой дождь 10 баллов +16.0 +13.5 85 +17 +17 1009.9 954.7
06 21.07 ЮЗ 1 20 км слаб. ливневой дождь 10/10 600 м
[Sc]
+11.9 +8.6 80 +12 +12 1012.2 956.0
09 21.07 ЮЗ 1 20 км слаб. ливневой дождь 10/10 600 м
[Cb cap]
+10.8 +9.4 91 +10 +10 1012.4 956.0 +18.2 5
12 21.07 ЮЗ 1 20 км {ливн. осадки} 6/6 1000 м
[Sc]
+9.1 +6.7 85 +8 +8 1012.2 955.5
15 21.07 ЮЗ 1 н/о н/о +9.0 +5.2 77 +8 +8 1014.2 957.3
18 21.07 Ю 1 50 км 5/5 1000 м
[Sc]
+5.2 +3.4 88 +4 +4 1013.7 956.0
21 21.07 Ю 1 50 км 4/1 1000 м
[Sc Ci fib]
+11.2 +4.6 64 +11 +17 1011.6 955.2 +5.0 0.0
00 22.07 ЮЗ 1 20 км 8/8 1000 м
[Sc]
+15.4 +4.7 49 +16 +19 1009.4 954.0
03 22.07 З 1 20 км 6/6 1000 м
[Cu Sc]
+18.1 +6.3 46 +19 +25 1008.2 953.3
06 22.07 З 1 20 км 9/9 1000 м
[Sc]
+15.1 +5.6 53 +16 +16 1010.2 954.7
09 22.07 штиль 0 20 км 9/9 1000 м
[Sc]
+12.9 +5.3 60 +13 +13 1010.7 954.7 +19.3
12 22.07 Ю 1 20 км 9/9 1000 м
[Sc]
+11.0 +6.1 72 +11 +11 1012.4 956.0
15 22.07 Ю 1 20 км 8/8 1000 м
[Sc]
+6.4 +4.6 88 +5 +5 1013.4 956.0
18 22.07 ЮЗ 1 50 км 9/9 1000 м
[Sc]
+5.1 +3.1 87 +4 +4 1013.7 956.0
21 22.07 ЮЗ 1 50 км 10/0
[Cs]
+11.3 +5.8 69 +11 +16 1010.5 954.2 +4.6
00 23.07 штиль 0 50 км 10/1 1000 м
[Sc As trans Cs]
+15.9 +3.2 43 +16 +24 1008.3 953.0
03 23.07 ЮЗ 1 50 км 9 баллов +18.9 +5.7 42 +20 +22 1008.0 953.3
06 23.07 З 1 50 км 9 баллов +17.7 +3.9 40 +19 +19 1008.3 953.3
09 23.07 С 2 20 км 9/8 1000 м
[Sc Ac trans]
+13.1 +5.7 61 +13 +13 1010.6 954.7 +19.5
12 23.07 СВ 1 20 км 10 баллов +10.3 +6.4 77 +10 +10 1011.2 954.7
15 23.07 СВ 2 20 км 10/10 1000 м
[Sc]
+9.4 +5.2 75 +8 +8 1011.4 954.7
18 23.07 СВ 1 20 км 9 баллов +8.2 +4.4 77 +8 +8 1010.2 953.3
21 23.07 СВ 2 20 км 10/10 1000 м
[Sc]
+7.9 +1.1 62 +6 +6 1010.0 953.0 +7.2
00 24.07 СВ 2 50 км 9/9 1000 м
[Sc]
+11.9 -3.8 33 +11 +13 1008.0 951.9
03 24.07 СВ 2 50 км 9 баллов +14.4 -3.9 28 +14 +16 1007.6 952.0

 

Местоположение метеостанции Эссо (Камчатский край, Россия): широта 55.93 долгота 158.70 высота над уровнем моря 481 м.

В архиве по умолчанию представлена погода в Эссо за последнюю неделю. Архивные данные за месяц целиком и за предыдущие месяцы, начиная с января 2011 года, Вы можете получить, выбрав интересующий диапазон дат из раскрывающегося списка и нажав кнопку "Ввод!".


*Определитесь, кто Вы:
робот инопланетянин человек

Внимание! Время в таблицах - всемирное. Для получения местного времени необходимо прибавить поправку, которая равна 12 ч.

Смотрите также архив погоды в соседних городах и на ближайших метеорологических станциях:

Погода в Козыревске (Камчатский край, Россия) (70 км)
Погода в Долиновке (Камчатский край, Россия) (92 км)
Погода в Ключах (Камчатский край, Россия) (137 км)
Погода в Мильково (Камчатский край, Россия) (140 км)
Погода в Усть-Хайрюзово (Камчатский край, Россия) (177 км)
Погода в Пущино (Камчатский край, Россия) (200 км)
Погода в Тигиле (Камчатский край, Россия) (203 км)
Погода в Иче (Камчатский край, Россия) (204 км)
Погода в Семячике (Камчатский край, Россия) (215 км)
Погода в Усть-Камчатске (Камчатский край, Россия) (250 км)

Пояснения к столбцам:

Ветер - указаны скорость ветра в м/с - средняя за 10 мин, порывы в срок и между сроками (в фигурных скобках) и направление, откуда дует ветер: С - северный, СВ - северо-восточный, В - восточный, ЮВ - юго-восточный, Ю - южный, ЮЗ - юго-западный, З - западный, СЗ - северо-западный.
Видимость - горизонтальная дальность видимости в метрах или километрах. При видимости от 1 до 10 км при отсутствии осадков обычно наблюдается дымка, при ухудшении видимости до 1 км и менее - туман. В сухую погоду видимость может ухудшаться дымом, пылью или мглою.
Явления - указаны атмосферные явления, наблюдавшиеся в срок или в последний час перед сроком; фигурными скобками обозначены явления, наблюдавшиеся между сроками (за 1-3 часа до срока); квадратными скобками обозначены град или гололедные отложения с указанием их диаметра в мм.
Облачность - указаны через наклонную черту общая и нижняя облачность в баллах и высота нижней границы облаков в метрах; квадратными скобками обозначены формы облаков: Ci - перистые, Cs - перисто-слоистые, Cc - перисто-кучевые, Ac - высококучевые, As - высокослоистые, Sc - слоисто-кучевые, Ns - слоисто-дождевые, Cu - кучевые, Cb - кучево-дождевые. Подробнее классификацию облаков см. в Атласе облаков (PDF).
T - Температура воздуха - температура, измеренная на высоте 2 м над землей.
Td - Температура точки росы - температура, при понижении до которой содержащийся в воздухе водяной пар достигнет насыщения.
f - Относительная влажность воздуха - влажноcть воздуха, измеренная на высоте 2 м над землей.
Te - Эффективная температура - температура, которую ощущает одетый по сезону человек в тени. Характеристика душности погоды. При расчете учитывается влияние влажности воздуха и скорости ветра на теплоощущения человека.
Tes - Эффективная температура на солнце - температура, которую ощущает человек, с поправкой на солнечный нагрев. Характеристика знойности погоды. Зависит от высоты солнца над горизонтом, облачности и скорости ветра. Ночью, в пасмурную погоду, а также при ветре 12 м/с и более поправка равна нулю.
P - Атмосферное давление - приведенное к уровню моря атмосферное давление.
Po - Атмосферное давление - измеренное на уровне метеостанции атмосферное давление.
Tmin - Минимальная температура - минимум температуры воздуха на высоте 2 м над землей.
Tmax - Максимальная температура - максимум температуры воздуха на высоте 2 м над землей.
R - Количество осадков - Количество выпавших осадков за период времени, мм. При наведении курсора мыши на число - период времени, за который выпало указанное количество осадков.
R24 - Количество осадков - Количество выпавших осадков за 24 часа, мм.
S - Снежный покров - Высота снежного покрова, см. При наведении курсора мыши на число - состояние снежного покрова и степень покрытия местности в баллах.